N5CSC Weather Reports


time (UTC)temp
F
wind
direction
speed
knots
gust
knots
rain 1hr
in
rain 24hr
in
rain mn
in
humidity
%
barometer
mb
20260831170033 92 106 0.0 6.1 0.00 0.00 0.00 53 1014.4
20260831164533 91 108 0.0 2.6 0.00 0.00 0.00 55 1014.5
20260831163026 90 115 0.0 5.2 0.00 0.00 0.00 59 1014.5
20260831161523 90 175 0.0 2.6 0.00 0.00 0.00 61 1014.5
20260831160027 88 182 2.6 7.0 0.00 0.00 0.00 64 1014.6
20260831154520 87 156 0.0 2.6 0.00 0.00 0.00 67 1014.5
20260831153015 86 166 0.0 1.7 0.00 0.00 0.00 69 1014.5
20260831151511 84 190 0.9 7.0 0.00 0.00 0.00 71 1014.5
20260831150013 83 175 0.0 2.6 0.00 0.00 0.00 75 1014.4
20260831144517 83 184 0.0 4.3 0.00 0.00 0.00 76 1014.4
20260831143005 82 134 0.0 0.9 0.00 0.00 0.00 78 1014.3
20260831141503 81 78 0.0 0.9 0.00 0.00 0.00 80 1014.4
20260831140001 80 59 0.0 0.0 0.00 0.00 0.00 80 1014.2
20260831134602 79 56 0.0 0.0 0.00 0.00 0.00 81 1014.1
20260831133057 79 58 0.0 0.0 0.00 0.00 0.00 81 1014.1
20260831131558 78 58 0.0 0.0 0.00 0.00 0.00 81 1014.1
20260831130059 77 58 0.0 0.0 0.00 0.00 0.00 81 1013.9
20260831124554 77 61 0.0 0.0 0.00 0.00 0.00 81 1014.0
20260831123053 77 77 0.0 0.0 0.00 0.00 0.00 81 1013.7
20260831121552 77 77 0.0 0.0 0.00 0.00 0.00 81 1013.6
20260831120052 76 103 0.0 0.0 0.00 0.00 0.00 81 1013.5
20260831114551 76 169 0.0 0.0 0.00 0.00 0.00 81 1013.5
20260831113052 76 169 0.0 0.0 0.00 0.00 0.00 81 1013.4
20260831111608 76 169 0.0 0.0 0.00 0.00 0.00 81 1013.3
20260831110126 76 169 0.0 0.0 0.00 0.00 0.00 80 1013.3
20260831104548 76 169 0.0 0.0 0.00 0.00 0.00 80 1013.2
20260831103054 76 169 0.0 0.0 0.00 0.00 0.00 80 1013.2
20260831101546 76 169 0.0 0.0 0.00 0.00 0.00 80 1013.4
20260831100048 77 169 0.0 0.0 0.00 0.00 0.00 79 1013.4
20260831094543 77 169 0.0 0.0 0.00 0.00 0.00 79 1013.3
20260831093041 77 169 0.0 0.0 0.00 0.00 0.00 79 1013.5
20260831091548 77 169 0.0 0.0 0.00 0.00 0.00 79 1013.4
20260831090039 77 169 0.0 0.0 0.00 0.00 0.00 78 1013.6
20260831084545 78 169 0.0 0.0 0.00 0.00 0.00 78 1013.6
20260831083045 78 169 0.0 0.0 0.00 0.00 0.00 77 1013.6
20260831081542 78 169 0.0 0.0 0.00 0.00 0.00 77 1013.6
20260831080032 79 169 0.0 0.0 0.00 0.00 0.00 76 1013.7
20260831074538 79 169 0.0 0.0 0.00 0.00 0.00 76 1013.6
20260831073058 80 169 0.0 0.0 0.00 0.00 0.00 75 1013.5
20260831071526 80 169 0.0 0.0 0.00 0.00 0.00 74 1013.4
20260831070031 81 169 0.0 0.0 0.00 0.00 0.00 73 1013.6
20260831064533 81 170 0.0 0.0 0.00 0.00 0.00 72 1013.5
20260831063022 81 171 0.0 0.0 0.00 0.00 0.00 71 1013.7
20260831061530 81 171 0.0 0.9 0.00 0.00 0.00 71 1013.6
20260831060018 82 139 0.0 0.0 0.00 0.00 0.00 70 1013.6
20260831054516 82 167 0.0 1.7 0.00 0.00 0.00 68 1013.6
20260831053020 82 158 0.0 2.6 0.00 0.00 0.00 67 1013.4
20260831051514 83 154 0.0 4.3 0.00 0.00 0.00 65 1013.4
20260831050031 83 119 0.0 5.2 0.00 0.00 0.00 63 1013.4
20260831044509 84 157 0.9 7.0 0.00 0.00 0.00 61 1013.2
20260831043010 84 152 0.9 4.3 0.00 0.00 0.00 59 1013.1
20260831041507 85 109 0.0 1.7 0.00 0.00 0.00 56 1013.1
20260831040022 85 136 0.0 4.3 0.00 0.00 0.00 55 1012.9
20260831034507 86 115 0.9 8.7 0.00 0.00 0.00 52 1012.7
20260831033006 86 148 0.0 3.5 0.00 0.00 0.00 50 1012.7
20260831031506 87 109 0.0 3.5 0.00 0.00 0.00 49 1012.6
20260831030015 88 134 0.0 3.5 0.00 0.00 0.00 47 1012.3
20260831024504 88 126 0.0 2.6 0.00 0.00 0.00 46 1011.9
20260831023003 89 107 0.0 6.1 0.00 0.00 0.00 46 1011.6
20260831021503 89 118 0.0 1.7 0.00 0.00 0.00 45 1011.2
20260831020003 90 112 0.0 0.0 0.00 0.00 0.00 45 1011.0
20260831014501 90 132 0.0 4.3 0.00 0.00 0.00 45 1010.9
20260831013001 91 122 0.0 4.3 0.00 0.00 0.00 44 1010.8
20260831011501 91 173 0.0 4.3 0.00 0.00 0.00 43 1010.7
20260831010002 92 146 0.0 1.7 0.00 0.00 0.00 42 1010.5
20260831004600 92 113 0.0 4.3 0.00 0.00 0.00 43 1010.3
20260831003100 93 97 1.7 7.8 0.00 0.00 0.00 41 1010.1
20260831001559 95 118 4.3 7.8 0.00 0.00 0.00 37 1010.0
20260831000103 96 142 0.0 6.1 0.00 0.00 0.00 35 1009.9
20260830234601 97 158 0.0 7.8 0.00 0.00 0.00 34 1009.8
20260830233103 98 106 0.9 7.8 0.00 0.00 0.00 31 1009.7
20260830231557 99 103 0.0 3.5 0.00 0.00 0.00 30 1009.7
20260830230056 99 172 0.9 6.1 0.00 0.00 0.00 30 1009.8
20260830224554 100 188 0.0 3.5 0.00 0.00 0.00 29 1009.9
20260830223054 100 140 0.9 7.0 0.00 0.00 0.00 30 1009.9
20260830221557 100 171 1.7 7.0 0.00 0.00 0.00 29 1010.0
20260830220101 98 139 0.0 4.3 0.00 0.00 0.00 32 1010.1
20260830214550 98 117 0.0 6.1 0.00 0.00 0.00 31 1010.1
20260830213047 98 104 0.9 6.1 0.00 0.00 0.00 32 1010.4
20260830211549 98 128 0.0 5.2 0.00 0.00 0.00 34 1010.7
20260830210042 96 107 0.0 2.6 0.00 0.00 0.00 34 1011.0
20260830204553 97 38 0.0 1.7 0.00 0.00 0.00 36 1011.2
20260830203038 97 151 1.7 5.2 0.00 0.00 0.00 36 1011.4
20260830201534 96 109 0.0 6.1 0.00 0.00 0.00 37 1011.8
20260830200037 96 119 0.0 8.7 0.00 0.00 0.00 38 1012.1
20260830194530 96 151 0.0 8.7 0.00 0.00 0.00 38 1012.4
20260830193028 98 192 0.0 6.1 0.00 0.00 0.00 37 1012.6
20260830191606 95 144 0.9 4.3 0.00 0.00 0.00 41 1012.9
20260830190028 95 115 0.0 4.3 0.00 0.00 0.00 42 1013.1
20260830184524 95 121 0.0 7.0 0.00 0.00 0.00 41 1013.3
20260830183017 95 178 1.7 6.1 0.00 0.00 0.00 44 1013.5
20260830181516 94 98 0.0 4.3 0.00 0.00 0.00 45 1013.7
20260830180012 95 170 0.9 10.4 0.00 0.00 0.00 47 1014.0
20260830174512 93 166 0.0 5.2 0.00 0.00 0.00 47 1014.2
20260830173011 93 147 0.0 11.3 0.00 0.00 0.00 49 1014.3
20260830171504 92 171 0.0 7.0 0.00 0.00 0.00 50 1014.6